Time,TemperatureF,DewpointF,PressureIn,WindDirection,WindDirectionDegrees,WindSpeedMPH,WindSpeedGustMPH,Humidity,HourlyPrecipIn,Conditions,Clouds,dailyrainin,SoftwareType,DateUTC
2013-04-25 00:01:00,33.1,24.0,25.88,NW,315,4.0,4.4,71,0.00,,,0.00,Rainwise IP-100,2013-04-25 06:01:00,
2013-04-25 00:06:00,32.9,26.0,25.88,NW,315,0.0,4.0,72,0.00,,,0.00,Rainwise IP-100,2013-04-25 06:06:00,
2013-04-25 00:11:00,33.2,26.0,25.88,NW,315,2.8,4.7,72,0.00,,,0.00,Rainwise IP-100,2013-04-25 06:11:00,
2013-04-25 00:16:00,34.0,26.0,25.88,NW,315,1.6,4.0,71,0.00,,,0.00,Rainwise IP-100,2013-04-25 06:16:00,
2013-04-25 00:21:00,33.6,26.0,25.88,NW,315,3.5,5.4,70,0.00,,,0.00,Rainwise IP-100,2013-04-25 06:21:00,
2013-04-25 00:26:00,32.4,24.0,25.88,NW,315,1.6,4.0,73,0.00,,,0.00,Rainwise IP-100,2013-04-25 06:26:00,
2013-04-25 00:31:00,31.5,24.0,25.88,NNE,22,0.0,4.2,74,0.00,,,0.00,Rainwise IP-100,2013-04-25 06:31:00,
2013-04-25 00:36:00,31.0,24.0,25.88,NNW,337,4.7,5.1,76,0.00,,,0.00,Rainwise IP-100,2013-04-25 06:36:00,
2013-04-25 00:41:00,30.7,24.0,25.88,WNW,292,1.4,5.1,77,0.00,,,0.00,Rainwise IP-100,2013-04-25 06:41:00,
2013-04-25 00:46:00,31.0,24.0,25.87,WNW,292,0.0,1.6,78,0.00,,,0.00,Rainwise IP-100,2013-04-25 06:46:00,
2013-04-25 00:51:00,32.2,26.0,25.87,WNW,292,0.0,0.0,76,0.00,,,0.00,Rainwise IP-100,2013-04-25 06:51:00,
2013-04-25 00:56:00,33.7,28.0,25.87,WNW,292,0.0,0.0,73,0.00,,,0.00,Rainwise IP-100,2013-04-25 06:56:00,
2013-04-25 01:01:00,33.8,26.0,25.87,WNW,292,0.0,0.0,72,0.00,,,0.00,Rainwise IP-100,2013-04-25 07:01:00,
2013-04-25 01:06:00,33.1,26.0,25.87,West,270,0.0,0.0,72,0.00,,,0.00,Rainwise IP-100,2013-04-25 07:06:00,
2013-04-25 01:11:00,33.3,26.0,25.87,West,270,0.0,0.0,72,0.00,,,0.00,Rainwise IP-100,2013-04-25 07:11:00,
2013-04-25 01:16:00,33.5,26.0,25.87,West,270,0.0,0.0,71,0.00,,,0.00,Rainwise IP-100,2013-04-25 07:16:00,
2013-04-25 01:21:00,32.8,24.0,25.87,West,270,0.0,0.0,71,0.00,,,0.00,Rainwise IP-100,2013-04-25 07:21:00,
2013-04-25 01:26:00,32.2,24.0,25.86,West,270,0.0,0.0,73,0.00,,,0.00,Rainwise IP-100,2013-04-25 07:26:00,
2013-04-25 01:31:00,32.0,24.0,25.86,West,270,0.0,0.0,74,0.00,,,0.00,Rainwise IP-100,2013-04-25 07:31:00,
2013-04-25 01:36:00,32.6,26.0,25.86,South,180,2.8,3.0,74,0.00,,,0.00,Rainwise IP-100,2013-04-25 07:36:00,
2013-04-25 01:41:00,33.8,26.0,25.86,South,180,1.6,3.3,71,0.00,,,0.00,Rainwise IP-100,2013-04-25 07:41:00,
2013-04-25 01:46:00,34.3,26.0,25.86,South,180,1.2,2.6,69,0.00,,,0.00,Rainwise IP-100,2013-04-25 07:46:00,
2013-04-25 01:51:00,33.8,26.0,25.86,South,180,0.0,2.8,69,0.00,,,0.00,Rainwise IP-100,2013-04-25 07:51:00,
2013-04-25 01:56:00,33.2,24.0,25.86,South,180,1.2,1.2,70,0.00,,,0.00,Rainwise IP-100,2013-04-25 07:56:00,
2013-04-25 02:01:00,32.5,24.0,25.86,South,180,0.0,1.2,71,0.00,,,0.00,Rainwise IP-100,2013-04-25 08:01:00,
2013-04-25 02:06:00,31.8,24.0,25.86,South,180,2.6,0.0,72,0.00,,,0.00,Rainwise IP-100,2013-04-25 08:06:00,
2013-04-25 02:11:00,31.8,24.0,25.85,SE,135,2.1,3.0,72,0.00,,,0.00,Rainwise IP-100,2013-04-25 08:11:00,
2013-04-25 02:16:00,32.9,24.0,25.85,SE,135,1.9,2.8,70,0.00,,,0.00,Rainwise IP-100,2013-04-25 08:16:00,
2013-04-25 02:21:00,33.7,26.0,25.85,SE,135,1.4,2.3,68,0.00,,,0.00,Rainwise IP-100,2013-04-25 08:21:00,
2013-04-25 02:26:00,33.8,24.0,25.85,ENE,67,2.8,3.3,67,0.00,,,0.00,Rainwise IP-100,2013-04-25 08:26:00,
2013-04-25 02:31:00,33.7,24.0,25.85,ENE,67,3.5,3.5,67,0.00,,,0.00,Rainwise IP-100,2013-04-25 08:31:00,
2013-04-25 02:36:00,33.9,24.0,25.85,ENE,67,2.6,4.7,66,0.00,,,0.00,Rainwise IP-100,2013-04-25 08:36:00,
2013-04-25 02:41:00,34.4,24.0,25.84,NE,45,2.3,4.7,65,0.00,,,0.00,Rainwise IP-100,2013-04-25 08:41:00,
2013-04-25 02:46:00,34.6,24.0,25.85,NE,45,4.2,4.2,64,0.00,,,0.00,Rainwise IP-100,2013-04-25 08:46:00,
2013-04-25 02:51:00,34.6,24.0,25.84,ENE,67,0.0,4.2,64,0.00,,,0.00,Rainwise IP-100,2013-04-25 08:51:00,
2013-04-25 02:56:00,34.2,24.0,25.84,ENE,67,2.8,3.7,64,0.00,,,0.00,Rainwise IP-100,2013-04-25 08:56:00,
2013-04-25 03:01:00,33.8,24.0,25.83,ENE,67,4.0,4.2,65,0.00,,,0.00,Rainwise IP-100,2013-04-25 09:01:00,
2013-04-25 03:06:00,34.0,24.0,25.84,ENE,67,4.0,4.9,65,0.00,,,0.00,Rainwise IP-100,2013-04-25 09:06:00,
2013-04-25 03:11:00,34.4,24.0,25.84,ENE,67,3.3,4.0,64,0.00,,,0.00,Rainwise IP-100,2013-04-25 09:11:00,
2013-04-25 03:16:00,34.4,24.0,25.83,ENE,67,2.8,4.9,64,0.00,,,0.00,Rainwise IP-100,2013-04-25 09:16:00,
2013-04-25 03:21:00,34.2,24.0,25.83,ENE,67,2.6,4.2,63,0.00,,,0.00,Rainwise IP-100,2013-04-25 09:21:00,
2013-04-25 03:26:00,34.2,24.0,25.83,East,90,3.5,3.7,63,0.00,,,0.00,Rainwise IP-100,2013-04-25 09:26:00,
2013-04-25 03:31:00,34.6,23.0,25.83,ESE,112,3.0,4.9,62,0.00,,,0.00,Rainwise IP-100,2013-04-25 09:31:00,
2013-04-25 03:36:00,35.1,23.0,25.83,SE,135,0.0,4.9,60,0.00,,,0.00,Rainwise IP-100,2013-04-25 09:36:00,
2013-04-25 03:41:00,35.3,23.0,25.83,SE,135,2.3,4.2,59,0.00,,,0.00,Rainwise IP-100,2013-04-25 09:41:00,
2013-04-25 03:46:00,35.1,23.0,25.83,ESE,112,1.4,3.3,59,0.00,,,0.00,Rainwise IP-100,2013-04-25 09:46:00,
2013-04-25 03:51:00,34.8,23.0,25.82,SE,135,1.6,3.0,59,0.00,,,0.00,Rainwise IP-100,2013-04-25 09:51:00,
2013-04-25 03:56:00,34.6,23.0,25.82,SE,135,0.0,2.8,59,0.00,,,0.00,Rainwise IP-100,2013-04-25 09:56:00,
2013-04-25 04:01:00,34.3,23.0,25.82,SSE,157,0.0,1.6,59,0.00,,,0.00,Rainwise IP-100,2013-04-25 10:01:00,
2013-04-25 04:06:00,34.0,23.0,25.83,SSE,157,0.0,2.1,59,0.00,,,0.00,Rainwise IP-100,2013-04-25 10:06:00,
2013-04-25 04:11:00,33.9,23.0,25.82,SSE,157,1.2,1.9,60,0.00,,,0.00,Rainwise IP-100,2013-04-25 10:11:00,
2013-04-25 04:16:00,33.7,23.0,25.82,SSE,157,0.0,1.6,60,0.00,,,0.00,Rainwise IP-100,2013-04-25 10:16:00,
2013-04-25 04:21:00,33.6,23.0,25.82,SSE,157,0.0,1.2,61,0.00,,,0.00,Rainwise IP-100,2013-04-25 10:21:00,
2013-04-25 04:26:00,33.4,23.0,25.82,SSE,157,0.0,1.2,61,0.00,,,0.00,Rainwise IP-100,2013-04-25 10:26:00,
2013-04-25 04:31:00,33.4,23.0,25.82,SSE,157,0.0,1.4,61,0.00,,,0.00,Rainwise IP-100,2013-04-25 10:31:00,
2013-04-25 04:36:00,33.1,23.0,25.82,SSE,157,0.0,1.2,61,0.00,,,0.00,Rainwise IP-100,2013-04-25 10:36:00,
2013-04-25 04:41:00,32.7,23.0,25.82,SSE,157,0.0,0.0,62,0.00,,,0.00,Rainwise IP-100,2013-04-25 10:41:00,
2013-04-25 04:46:00,32.4,21.0,25.81,SSE,157,0.0,0.0,62,0.00,,,0.00,Rainwise IP-100,2013-04-25 10:46:00,
2013-04-25 04:51:00,31.9,21.0,25.81,SSE,157,0.0,0.0,63,0.00,,,0.00,Rainwise IP-100,2013-04-25 10:51:00,
2013-04-25 04:56:00,31.3,21.0,25.80,SSE,157,0.0,0.0,65,0.00,,,0.00,Rainwise IP-100,2013-04-25 10:56:00,
2013-04-25 05:01:00,30.7,21.0,25.81,SSE,157,0.0,0.0,66,0.00,,,0.00,Rainwise IP-100,2013-04-25 11:01:00,
2013-04-25 05:06:00,30.2,23.0,25.81,SSE,157,0.0,0.0,68,0.00,,,0.00,Rainwise IP-100,2013-04-25 11:06:00,
2013-04-25 05:11:00,30.1,23.0,25.81,SSE,157,0.0,0.0,68,0.00,,,0.00,Rainwise IP-100,2013-04-25 11:11:00,
2013-04-25 05:16:00,30.1,23.0,25.81,SSE,157,0.0,0.0,68,0.00,,,0.00,Rainwise IP-100,2013-04-25 11:16:00,
2013-04-25 05:21:00,29.9,23.0,25.80,SSE,157,0.0,0.0,69,0.00,,,0.00,Rainwise IP-100,2013-04-25 11:21:00,
2013-04-25 05:26:00,29.7,23.0,25.80,SSE,157,0.0,0.0,69,0.00,,,0.00,Rainwise IP-100,2013-04-25 11:26:00,
2013-04-25 05:31:00,29.7,23.0,25.80,SSE,157,0.0,0.0,69,0.00,,,0.00,Rainwise IP-100,2013-04-25 11:31:00,
2013-04-25 05:36:00,29.8,23.0,25.80,SSE,157,0.0,0.0,70,0.00,,,0.00,Rainwise IP-100,2013-04-25 11:36:00,
2013-04-25 05:39:00,29.8,23.0,25.80,SW,225,0.0,0.0,70,0.00,,,0.00,Rainwise IP-100,2013-04-25 11:39:00,
2013-04-25 05:40:00,29.8,23.0,25.80,SW,225,0.0,0.0,70,0.00,,,0.00,Rainwise IP-100,2013-04-25 11:40:00,
2013-04-25 05:45:00,29.8,23.0,25.80,SW,225,0.0,0.0,70,0.00,,,0.00,Rainwise IP-100,2013-04-25 11:45:00,
2013-04-25 05:50:00,29.6,23.0,25.80,SW,225,0.0,0.0,70,0.00,,,0.00,Rainwise IP-100,2013-04-25 11:50:00,
2013-04-25 05:55:00,29.2,23.0,25.80,SW,225,0.0,0.0,72,0.00,,,0.00,Rainwise IP-100,2013-04-25 11:55:00,
2013-04-25 06:00:00,29.6,23.0,25.80,SW,225,0.0,0.0,71,0.00,,,0.00,Rainwise IP-100,2013-04-25 12:00:00,
2013-04-25 06:05:00,30.0,23.0,25.79,SW,225,0.0,0.0,70,0.00,,,0.00,Rainwise IP-100,2013-04-25 12:05:00,
2013-04-25 06:10:00,29.9,23.0,25.80,SW,225,0.0,0.0,70,0.00,,,0.00,Rainwise IP-100,2013-04-25 12:10:00,
2013-04-25 06:15:00,30.0,23.0,25.80,SW,225,0.0,0.0,70,0.00,,,0.00,Rainwise IP-100,2013-04-25 12:15:00,
2013-04-25 06:20:00,30.5,23.0,25.80,SW,225,0.0,0.0,69,0.00,,,0.00,Rainwise IP-100,2013-04-25 12:20:00,
2013-04-25 06:25:00,31.0,23.0,25.80,SW,225,0.0,0.0,68,0.00,,,0.00,Rainwise IP-100,2013-04-25 12:25:00,
2013-04-25 06:30:00,31.5,23.0,25.80,SW,225,0.0,0.0,67,0.00,,,0.00,Rainwise IP-100,2013-04-25 12:30:00,
2013-04-25 06:35:00,32.2,23.0,25.80,SW,225,0.0,0.0,66,0.00,,,0.00,Rainwise IP-100,2013-04-25 12:35:00,
2013-04-25 06:40:00,32.5,23.0,25.80,SW,225,0.0,0.0,65,0.00,,,0.00,Rainwise IP-100,2013-04-25 12:40:00,
2013-04-25 06:45:00,32.7,23.0,25.80,SSE,157,0.0,1.6,64,0.00,,,0.00,Rainwise IP-100,2013-04-25 12:45:00,
2013-04-25 06:50:00,33.0,23.0,25.80,SSE,157,1.2,1.4,63,0.00,,,0.00,Rainwise IP-100,2013-04-25 12:50:00,
2013-04-25 06:55:00,33.0,23.0,25.80,SSE,157,1.6,2.6,63,0.00,,,0.00,Rainwise IP-100,2013-04-25 12:55:00,
2013-04-25 07:00:00,33.0,23.0,25.80,SSE,157,0.0,1.9,63,0.00,,,0.00,Rainwise IP-100,2013-04-25 13:00:00,
2013-04-25 07:05:00,33.1,23.0,25.80,SSE,157,0.0,1.4,63,0.00,,,0.00,Rainwise IP-100,2013-04-25 13:05:00,
2013-04-25 07:10:00,33.2,23.0,25.80,SSE,157,1.9,2.3,64,0.00,,,0.00,Rainwise IP-100,2013-04-25 13:10:00,
2013-04-25 07:15:00,33.2,23.0,25.81,SSE,157,1.2,2.3,64,0.00,,,0.00,Rainwise IP-100,2013-04-25 13:15:00,
2013-04-25 07:20:00,33.6,24.0,25.81,SSE,157,0.0,1.2,65,0.00,,,0.00,Rainwise IP-100,2013-04-25 13:20:00,
2013-04-25 07:25:00,34.7,24.0,25.81,SSE,157,0.0,1.2,64,0.00,,,0.00,Rainwise IP-100,2013-04-25 13:25:00,
2013-04-25 07:30:00,35.5,24.0,25.81,SSE,157,0.0,2.1,62,0.00,,,0.00,Rainwise IP-100,2013-04-25 13:30:00,
2013-04-25 07:35:00,36.1,24.0,25.81,SSE,157,2.6,3.0,60,0.00,,,0.00,Rainwise IP-100,2013-04-25 13:35:00,
2013-04-25 07:40:00,36.4,23.0,25.81,ESE,112,3.3,3.7,59,0.00,,,0.00,Rainwise IP-100,2013-04-25 13:40:00,
2013-04-25 07:45:00,36.4,23.0,25.81,SE,135,1.2,4.4,57,0.00,,,0.00,Rainwise IP-100,2013-04-25 13:45:00,
2013-04-25 07:50:00,36.9,24.0,25.81,SSE,157,2.8,4.4,57,0.00,,,0.00,Rainwise IP-100,2013-04-25 13:50:00,
2013-04-25 07:55:00,37.6,24.0,25.80,South,180,3.0,3.3,58,0.00,,,0.00,Rainwise IP-100,2013-04-25 13:55:00,
2013-04-25 08:00:00,38.1,26.0,25.81,South,180,3.3,5.1,59,0.00,,,0.00,Rainwise IP-100,2013-04-25 14:00:00,
2013-04-25 08:05:00,38.5,26.0,25.81,SSE,157,4.0,4.9,60,0.00,,,0.00,Rainwise IP-100,2013-04-25 14:05:00,
2013-04-25 08:10:00,38.3,26.0,25.80,SSW,202,2.3,5.6,61,0.00,,,0.00,Rainwise IP-100,2013-04-25 14:10:00,
2013-04-25 08:15:00,38.1,26.0,25.80,South,180,2.6,5.6,61,0.00,,,0.00,Rainwise IP-100,2013-04-25 14:15:00,
2013-04-25 08:20:00,38.6,28.0,25.81,SSW,202,3.7,6.1,62,0.00,,,0.00,Rainwise IP-100,2013-04-25 14:20:00,
2013-04-25 08:24:00,39.0,28.0,25.81,South,180,2.6,6.3,61,0.00,,,0.00,Rainwise IP-100,2013-04-25 14:24:00,
2013-04-25 08:29:00,39.6,28.0,25.81,South,180,4.0,4.2,59,0.00,,,0.00,Rainwise IP-100,2013-04-25 14:29:00,
2013-04-25 08:34:00,40.2,28.0,25.80,SSW,202,3.0,4.7,58,0.00,,,0.00,Rainwise IP-100,2013-04-25 14:34:00,
2013-04-25 08:39:00,40.9,28.0,25.80,SSW,202,4.4,4.7,57,0.00,,,0.00,Rainwise IP-100,2013-04-25 14:39:00,
2013-04-25 08:44:00,41.7,28.0,25.80,SSW,202,5.4,6.5,56,0.00,,,0.00,Rainwise IP-100,2013-04-25 14:44:00,
2013-04-25 08:49:00,42.5,28.0,25.80,SSW,202,7.0,8.9,55,0.00,,,0.00,Rainwise IP-100,2013-04-25 14:49:00,
2013-04-25 08:54:00,43.5,28.0,25.80,South,180,6.8,9.8,53,0.00,,,0.00,Rainwise IP-100,2013-04-25 14:54:00,
2013-04-25 08:59:00,44.3,28.0,25.80,SSW,202,2.6,11.9,52,0.00,,,0.00,Rainwise IP-100,2013-04-25 14:59:00,
2013-04-25 09:04:00,45.1,28.0,25.80,SW,225,11.7,11.7,51,0.00,,,0.00,Rainwise IP-100,2013-04-25 15:04:00,
2013-04-25 09:09:00,45.7,29.0,25.79,WSW,247,4.9,12.6,50,0.00,,,0.00,Rainwise IP-100,2013-04-25 15:09:00,
2013-04-25 09:14:00,46.3,28.0,25.79,WSW,247,5.6,11.9,49,0.00,,,0.00,Rainwise IP-100,2013-04-25 15:14:00,
2013-04-25 09:19:00,47.1,28.0,25.80,SSW,202,13.1,13.1,48,0.00,,,0.00,Rainwise IP-100,2013-04-25 15:19:00,
2013-04-25 09:24:00,48.2,29.0,25.80,SSW,202,7.2,13.1,47,0.00,,,0.00,Rainwise IP-100,2013-04-25 15:24:00,
2013-04-25 09:29:00,48.9,29.0,25.79,SSE,157,5.6,11.7,45,0.00,,,0.00,Rainwise IP-100,2013-04-25 15:29:00,
2013-04-25 09:34:00,49.3,29.0,25.80,SSW,202,9.8,9.8,45,0.00,,,0.00,Rainwise IP-100,2013-04-25 15:34:00,
2013-04-25 09:39:00,50.7,29.0,25.79,SSW,202,11.7,15.2,43,0.00,,,0.00,Rainwise IP-100,2013-04-25 15:39:00,
2013-04-25 09:44:00,52.1,28.0,25.79,SSW,202,7.0,16.6,39,0.00,,,0.00,Rainwise IP-100,2013-04-25 15:44:00,
2013-04-25 09:49:00,52.7,28.0,25.80,SSW,202,10.5,19.8,37,0.00,,,0.00,Rainwise IP-100,2013-04-25 15:49:00,
2013-04-25 09:54:00,52.5,26.0,25.79,SW,225,10.0,20.3,36,0.00,,,0.00,Rainwise IP-100,2013-04-25 15:54:00,
2013-04-25 09:59:00,52.3,26.0,25.79,SW,225,7.0,18.7,37,0.00,,,0.00,Rainwise IP-100,2013-04-25 15:59:00,
2013-04-25 10:04:00,52.1,26.0,25.79,SW,225,14.0,20.1,37,0.00,,,0.00,Rainwise IP-100,2013-04-25 16:04:00,
2013-04-25 10:09:00,52.2,26.0,25.79,SSW,202,4.2,21.5,37,0.00,,,0.00,Rainwise IP-100,2013-04-25 16:09:00,
2013-04-25 10:14:00,52.5,26.0,25.78,WSW,247,16.3,20.3,36,0.00,,,0.00,Rainwise IP-100,2013-04-25 16:14:00,
2013-04-25 10:19:00,52.9,26.0,25.78,SSW,202,9.1,18.7,36,0.00,,,0.00,Rainwise IP-100,2013-04-25 16:19:00,
2013-04-25 10:24:00,53.5,28.0,25.79,South,180,13.1,18.0,36,0.00,,,0.00,Rainwise IP-100,2013-04-25 16:24:00,
2013-04-25 10:29:00,53.7,26.0,25.78,South,180,14.7,21.0,35,0.00,,,0.00,Rainwise IP-100,2013-04-25 16:29:00,
2013-04-25 10:34:00,54.1,28.0,25.78,SSW,202,10.7,16.6,35,0.00,,,0.00,Rainwise IP-100,2013-04-25 16:34:00,
2013-04-25 10:39:00,54.6,28.0,25.78,South,180,10.5,20.5,34,0.00,,,0.00,Rainwise IP-100,2013-04-25 16:39:00,
2013-04-25 10:44:00,54.8,28.0,25.78,SSW,202,7.2,21.7,34,0.00,,,0.00,Rainwise IP-100,2013-04-25 16:44:00,
2013-04-25 10:49:00,55.3,28.0,25.78,SSW,202,7.9,21.2,33,0.00,,,0.00,Rainwise IP-100,2013-04-25 16:49:00,
2013-04-25 10:54:00,55.9,28.0,25.78,SSW,202,7.0,19.4,33,0.00,,,0.00,Rainwise IP-100,2013-04-25 16:54:00,
2013-04-25 10:59:00,56.1,26.0,25.78,WSW,247,13.1,22.2,32,0.00,,,0.00,Rainwise IP-100,2013-04-25 16:59:00,
2013-04-25 11:04:00,56.2,26.0,25.77,WSW,247,14.2,23.3,32,0.00,,,0.00,Rainwise IP-100,2013-04-25 17:04:00,
2013-04-25 11:09:00,56.4,28.0,25.77,SSW,202,9.8,23.6,32,0.00,,,0.00,Rainwise IP-100,2013-04-25 17:09:00,
2013-04-25 11:14:00,56.5,28.0,25.77,SSW,202,13.5,24.0,32,0.00,,,0.00,Rainwise IP-100,2013-04-25 17:14:00,
2013-04-25 11:19:00,57.1,28.0,25.77,SSW,202,4.9,23.6,31,0.00,,,0.00,Rainwise IP-100,2013-04-25 17:19:00,
2013-04-25 11:24:00,58.0,28.0,25.76,SSW,202,19.8,25.6,31,0.00,,,0.00,Rainwise IP-100,2013-04-25 17:24:00,
2013-04-25 11:29:00,58.2,28.0,25.75,SSW,202,12.8,24.7,31,0.00,,,0.00,Rainwise IP-100,2013-04-25 17:29:00,
2013-04-25 11:34:00,58.4,28.0,25.75,WSW,247,13.3,20.1,31,0.00,,,0.00,Rainwise IP-100,2013-04-25 17:34:00,
2013-04-25 11:39:00,59.0,29.0,25.75,WSW,247,11.4,23.3,31,0.00,,,0.00,Rainwise IP-100,2013-04-25 17:39:00,
2013-04-25 11:44:00,59.3,28.0,25.75,WSW,247,14.5,18.2,30,0.00,,,0.00,Rainwise IP-100,2013-04-25 17:44:00,
2013-04-25 11:49:00,59.3,28.0,25.74,SSW,202,10.3,19.8,30,0.00,,,0.00,Rainwise IP-100,2013-04-25 17:49:00,
2013-04-25 11:54:00,59.7,28.0,25.74,South,180,15.9,23.3,30,0.00,,,0.00,Rainwise IP-100,2013-04-25 17:54:00,
2013-04-25 11:59:00,60.1,29.0,25.74,SW,225,14.7,25.2,30,0.00,,,0.00,Rainwise IP-100,2013-04-25 17:59:00,
2013-04-25 12:04:00,60.3,29.0,25.74,WSW,247,18.0,22.6,30,0.00,,,0.00,Rainwise IP-100,2013-04-25 18:04:00,
2013-04-25 12:09:00,60.3,29.0,25.74,SSW,202,8.9,21.9,30,0.00,,,0.00,Rainwise IP-100,2013-04-25 18:09:00,
2013-04-25 12:14:00,60.6,29.0,25.74,SSW,202,9.8,21.5,30,0.00,,,0.00,Rainwise IP-100,2013-04-25 18:14:00,
2013-04-25 12:19:00,61.0,29.0,25.73,South,180,9.1,21.2,29,0.00,,,0.00,Rainwise IP-100,2013-04-25 18:19:00,
2013-04-25 12:24:00,61.4,29.0,25.73,South,180,10.7,20.3,29,0.00,,,0.00,Rainwise IP-100,2013-04-25 18:24:00,
2013-04-25 12:29:00,61.7,29.0,25.72,SSW,202,19.1,23.3,29,0.00,,,0.00,Rainwise IP-100,2013-04-25 18:29:00,
2013-04-25 12:34:00,61.6,29.0,25.71,SSW,202,8.2,21.2,29,0.00,,,0.00,Rainwise IP-100,2013-04-25 18:34:00,
2013-04-25 12:39:00,61.3,29.0,25.71,SSW,202,9.6,21.9,29,0.00,,,0.00,Rainwise IP-100,2013-04-25 18:39:00,
2013-04-25 12:44:00,61.6,28.0,25.72,SSW,202,11.9,22.6,28,0.00,,,0.00,Rainwise IP-100,2013-04-25 18:44:00,
2013-04-25 12:49:00,61.7,28.0,25.72,SSW,202,7.5,22.4,28,0.00,,,0.00,Rainwise IP-100,2013-04-25 18:49:00,
2013-04-25 12:54:00,61.3,28.0,25.71,SSW,202,16.3,23.1,28,0.00,,,0.00,Rainwise IP-100,2013-04-25 18:54:00,
2013-04-25 12:59:00,61.2,28.0,25.71,SSW,202,13.3,21.5,28,0.00,,,0.00,Rainwise IP-100,2013-04-25 18:59:00,
2013-04-25 13:04:00,61.3,28.0,25.71,SSW,202,16.8,21.2,28,0.00,,,0.00,Rainwise IP-100,2013-04-25 19:04:00,
2013-04-25 13:09:00,61.3,28.0,25.71,SSW,202,9.6,22.6,28,0.00,,,0.00,Rainwise IP-100,2013-04-25 19:09:00,
2013-04-25 13:14:00,61.3,28.0,25.70,SSW,202,10.3,20.3,27,0.00,,,0.00,Rainwise IP-100,2013-04-25 19:14:00,
2013-04-25 13:19:00,61.7,28.0,25.70,SSW,202,17.3,19.6,27,0.00,,,0.00,Rainwise IP-100,2013-04-25 19:19:00,
2013-04-25 13:24:00,61.7,28.0,25.70,SW,225,15.9,23.8,27,0.00,,,0.00,Rainwise IP-100,2013-04-25 19:24:00,
2013-04-25 13:29:00,61.9,28.0,25.71,SSW,202,15.4,20.3,27,0.00,,,0.00,Rainwise IP-100,2013-04-25 19:29:00,
2013-04-25 13:35:00,62.4,28.0,25.70,South,180,12.8,23.1,27,0.00,,,0.00,Rainwise IP-100,2013-04-25 19:35:00,
2013-04-25 13:40:00,62.7,28.0,25.70,SSW,202,17.3,20.3,27,0.00,,,0.00,Rainwise IP-100,2013-04-25 19:40:00,
2013-04-25 13:45:00,62.7,28.0,25.70,South,180,11.2,21.9,27,0.00,,,0.00,Rainwise IP-100,2013-04-25 19:45:00,
2013-04-25 13:50:00,62.6,28.0,25.69,SSW,202,7.5,20.3,27,0.00,,,0.00,Rainwise IP-100,2013-04-25 19:50:00,
2013-04-25 13:55:00,62.9,29.0,25.69,SSW,202,15.6,18.7,27,0.00,,,0.00,Rainwise IP-100,2013-04-25 19:55:00,
2013-04-25 14:00:00,63.1,29.0,25.68,SSW,202,8.6,18.4,27,0.00,,,0.00,Rainwise IP-100,2013-04-25 20:00:00,
2013-04-25 14:05:00,63.1,29.0,25.68,SW,225,8.2,21.2,27,0.00,,,0.00,Rainwise IP-100,2013-04-25 20:05:00,
2013-04-25 14:10:00,63.1,29.0,25.68,SSW,202,6.5,21.2,27,0.00,,,0.00,Rainwise IP-100,2013-04-25 20:10:00,
2013-04-25 14:15:00,63.1,29.0,25.68,WSW,247,9.8,20.8,27,0.00,,,0.00,Rainwise IP-100,2013-04-25 20:15:00,
2013-04-25 14:20:00,63.4,29.0,25.68,South,180,13.3,18.9,27,0.00,,,0.00,Rainwise IP-100,2013-04-25 20:20:00,
2013-04-25 14:25:00,63.6,28.0,25.68,SSW,202,10.0,18.7,26,0.00,,,0.00,Rainwise IP-100,2013-04-25 20:25:00,
2013-04-25 14:30:00,63.5,28.0,25.68,SSW,202,10.7,18.9,26,0.00,,,0.00,Rainwise IP-100,2013-04-25 20:30:00,
2013-04-25 14:35:00,63.5,28.0,25.68,SSW,202,8.4,19.4,26,0.00,,,0.00,Rainwise IP-100,2013-04-25 20:35:00,
2013-04-25 14:40:00,63.7,29.0,25.67,SSW,202,11.0,17.7,27,0.00,,,0.00,Rainwise IP-100,2013-04-25 20:40:00,
2013-04-25 14:45:00,63.7,29.0,25.67,South,180,15.2,16.6,27,0.00,,,0.00,Rainwise IP-100,2013-04-25 20:45:00,
2013-04-25 14:50:00,63.6,29.0,25.67,South,180,11.9,20.5,27,0.00,,,0.00,Rainwise IP-100,2013-04-25 20:50:00,
2013-04-25 14:55:00,64.3,29.0,25.67,WSW,247,4.4,19.4,27,0.00,,,0.00,Rainwise IP-100,2013-04-25 20:55:00,
2013-04-25 15:00:00,65.1,31.0,25.66,SSW,202,11.4,19.1,27,0.00,,,0.00,Rainwise IP-100,2013-04-25 21:00:00,
2013-04-25 15:05:00,65.4,29.0,25.65,SSW,202,10.0,19.8,26,0.00,,,0.00,Rainwise IP-100,2013-04-25 21:05:00,
2013-04-25 15:10:00,65.5,29.0,25.65,SSW,202,15.2,17.0,26,0.00,,,0.00,Rainwise IP-100,2013-04-25 21:10:00,
2013-04-25 15:15:00,65.6,29.0,25.65,SSW,202,18.0,19.4,26,0.00,,,0.00,Rainwise IP-100,2013-04-25 21:15:00,
2013-04-25 15:20:00,65.7,29.0,25.64,SSE,157,11.0,20.5,26,0.00,,,0.00,Rainwise IP-100,2013-04-25 21:20:00,
2013-04-25 15:25:00,66.0,29.0,25.63,SSW,202,7.7,22.4,25,0.00,,,0.00,Rainwise IP-100,2013-04-25 21:25:00,
2013-04-25 15:30:00,66.4,29.0,25.63,South,180,14.2,18.0,25,0.00,,,0.00,Rainwise IP-100,2013-04-25 21:30:00,
2013-04-25 15:35:00,66.5,31.0,25.63,SSE,157,11.7,16.8,25,0.00,,,0.00,Rainwise IP-100,2013-04-25 21:35:00,
2013-04-25 15:40:00,66.7,31.0,25.62,South,180,7.5,17.3,25,0.00,,,0.00,Rainwise IP-100,2013-04-25 21:40:00,
2013-04-25 15:45:00,66.9,29.0,25.62,SSE,157,8.2,16.1,24,0.00,,,0.00,Rainwise IP-100,2013-04-25 21:45:00,
2013-04-25 15:50:00,66.8,29.0,25.62,SSE,157,8.9,18.2,24,0.00,,,0.00,Rainwise IP-100,2013-04-25 21:50:00,
2013-04-25 15:55:00,66.9,29.0,25.62,South,180,11.9,18.0,24,0.00,,,0.00,Rainwise IP-100,2013-04-25 21:55:00,
2013-04-25 16:00:00,67.3,29.0,25.62,SSE,157,9.8,18.2,24,0.00,,,0.00,Rainwise IP-100,2013-04-25 22:00:00,
2013-04-25 16:05:00,67.6,29.0,25.61,SSW,202,7.0,17.3,24,0.00,,,0.00,Rainwise IP-100,2013-04-25 22:05:00,
2013-04-25 16:10:00,67.9,31.0,25.61,SSE,157,9.8,17.7,24,0.00,,,0.00,Rainwise IP-100,2013-04-25 22:10:00,
2013-04-25 16:15:00,67.8,31.0,25.60,South,180,9.1,18.7,24,0.00,,,0.00,Rainwise IP-100,2013-04-25 22:15:00,
2013-04-25 16:20:00,68.0,29.0,25.60,SSE,157,12.4,18.4,23,0.00,,,0.00,Rainwise IP-100,2013-04-25 22:20:00,
2013-04-25 16:25:00,68.2,29.0,25.60,SSE,157,6.3,17.7,23,0.00,,,0.00,Rainwise IP-100,2013-04-25 22:25:00,
2013-04-25 16:30:00,68.5,29.0,25.60,South,180,11.7,16.8,23,0.00,,,0.00,Rainwise IP-100,2013-04-25 22:30:00,
2013-04-25 16:35:00,68.8,29.0,25.60,SSE,157,13.5,21.7,23,0.00,,,0.00,Rainwise IP-100,2013-04-25 22:35:00,
2013-04-25 16:40:00,68.6,29.0,25.60,SSE,157,11.2,19.6,23,0.00,,,0.00,Rainwise IP-100,2013-04-25 22:40:00,
2013-04-25 16:45:00,68.5,29.0,25.60,SSE,157,15.9,21.2,23,0.00,,,0.00,Rainwise IP-100,2013-04-25 22:45:00,
2013-04-25 16:50:00,68.6,29.0,25.59,South,180,8.2,22.9,23,0.00,,,0.00,Rainwise IP-100,2013-04-25 22:50:00,
2013-04-25 16:55:00,68.7,28.0,25.59,SSE,157,24.0,25.6,22,0.00,,,0.00,Rainwise IP-100,2013-04-25 22:55:00,
2013-04-25 17:00:00,68.1,28.0,25.59,South,180,13.5,27.0,22,0.00,,,0.00,Rainwise IP-100,2013-04-25 23:00:00,
2013-04-25 17:05:00,67.5,29.0,25.59,SSE,157,15.6,23.1,23,0.00,,,0.00,Rainwise IP-100,2013-04-25 23:05:00,
2013-04-25 17:10:00,67.1,28.0,25.59,SSE,157,12.4,26.8,23,0.00,,,0.00,Rainwise IP-100,2013-04-25 23:10:00,
2013-04-25 17:15:00,66.6,28.0,25.59,South,180,10.7,26.8,23,0.00,,,0.00,Rainwise IP-100,2013-04-25 23:15:00,
2013-04-25 17:20:00,66.1,28.0,25.58,SSE,157,9.1,28.7,24,0.00,,,0.00,Rainwise IP-100,2013-04-25 23:20:00,
2013-04-25 17:25:00,65.9,28.0,25.58,SSW,202,11.9,25.4,24,0.00,,,0.00,Rainwise IP-100,2013-04-25 23:25:00,
2013-04-25 17:30:00,66.1,28.0,25.58,South,180,19.1,24.2,24,0.00,,,0.00,Rainwise IP-100,2013-04-25 23:30:00,
2013-04-25 17:35:00,66.3,29.0,25.59,SSE,157,12.8,23.6,24,0.00,,,0.00,Rainwise IP-100,2013-04-25 23:35:00,
2013-04-25 17:40:00,66.2,29.0,25.59,SSE,157,15.4,24.5,24,0.00,,,0.00,Rainwise IP-100,2013-04-25 23:40:00,
2013-04-25 17:45:00,66.1,28.0,25.58,South,180,16.1,23.3,24,0.00,,,0.00,Rainwise IP-100,2013-04-25 23:45:00,
2013-04-25 17:50:00,66.4,29.0,25.58,South,180,14.0,25.9,24,0.00,,,0.00,Rainwise IP-100,2013-04-25 23:50:00,
2013-04-25 17:55:00,66.1,28.0,25.58,SE,135,16.8,27.5,24,0.00,,,0.00,Rainwise IP-100,2013-04-25 23:55:00,
2013-04-25 18:00:00,65.4,28.0,25.58,South,180,9.6,22.2,24,0.00,,,0.00,Rainwise IP-100,2013-04-26 00:00:00,
2013-04-25 18:05:00,65.1,29.0,25.58,SSE,157,18.9,26.6,25,0.00,,,0.00,Rainwise IP-100,2013-04-26 00:05:00,
2013-04-25 18:10:00,65.2,29.0,25.58,SSE,157,16.6,25.2,25,0.00,,,0.00,Rainwise IP-100,2013-04-26 00:10:00,
2013-04-25 18:15:00,65.2,29.0,25.58,SSE,157,14.5,22.2,25,0.00,,,0.00,Rainwise IP-100,2013-04-26 00:15:00,
2013-04-25 18:20:00,65.1,29.0,25.58,SSE,157,10.5,23.8,25,0.00,,,0.00,Rainwise IP-100,2013-04-26 00:20:00,
2013-04-25 18:25:00,64.9,29.0,25.57,SSE,157,14.7,23.3,25,0.00,,,0.00,Rainwise IP-100,2013-04-26 00:25:00,
2013-04-25 18:30:00,64.7,28.0,25.58,South,180,21.5,23.8,25,0.00,,,0.00,Rainwise IP-100,2013-04-26 00:30:00,
2013-04-25 18:35:00,64.6,28.0,25.57,SSE,157,18.4,24.2,25,0.00,,,0.00,Rainwise IP-100,2013-04-26 00:35:00,
2013-04-25 18:40:00,64.1,28.0,25.57,SSE,157,21.7,22.9,25,0.00,,,0.00,Rainwise IP-100,2013-04-26 00:40:00,
2013-04-25 18:45:00,63.8,29.0,25.57,SSE,157,19.6,28.2,26,0.00,,,0.00,Rainwise IP-100,2013-04-26 00:45:00,
2013-04-25 18:50:00,64.0,29.0,25.57,SSE,157,23.3,30.5,26,0.00,,,0.00,Rainwise IP-100,2013-04-26 00:50:00,
2013-04-25 18:55:00,64.2,29.0,25.57,SE,135,7.0,26.6,26,0.00,,,0.00,Rainwise IP-100,2013-04-26 00:55:00,
2013-04-25 19:00:00,64.2,29.0,25.57,SSE,157,8.6,27.0,26,0.00,,,0.00,Rainwise IP-100,2013-04-26 01:00:00,
2013-04-25 19:05:00,64.0,29.0,25.58,South,180,13.8,21.9,26,0.00,,,0.00,Rainwise IP-100,2013-04-26 01:05:00,
2013-04-25 19:10:00,63.7,28.0,25.58,SSE,157,10.5,23.3,26,0.00,,,0.00,Rainwise IP-100,2013-04-26 01:10:00,
2013-04-25 19:15:00,63.4,29.0,25.57,SSE,157,25.2,25.2,27,0.00,,,0.00,Rainwise IP-100,2013-04-26 01:15:00,
2013-04-25 19:20:00,62.2,31.0,25.58,SSE,157,21.5,27.3,30,0.00,,,0.00,Rainwise IP-100,2013-04-26 01:20:00,
2013-04-25 19:25:00,60.7,33.0,25.58,SSE,157,20.3,22.4,35,0.00,,,0.00,Rainwise IP-100,2013-04-26 01:25:00,
2013-04-25 19:30:00,60.4,35.0,25.58,South,180,14.5,25.2,37,0.00,,,0.00,Rainwise IP-100,2013-04-26 01:30:00,
2013-04-25 19:35:00,60.6,35.0,25.57,SSE,157,14.9,21.5,37,0.00,,,0.00,Rainwise IP-100,2013-04-26 01:35:00,
2013-04-25 19:40:00,61.0,33.0,25.58,SSE,157,14.7,19.4,36,0.00,,,0.00,Rainwise IP-100,2013-04-26 01:40:00,
2013-04-25 19:45:00,61.1,33.0,25.58,South,180,14.0,17.3,35,0.00,,,0.00,Rainwise IP-100,2013-04-26 01:45:00,
2013-04-25 19:50:00,60.6,33.0,25.58,SSE,157,7.2,15.4,36,0.00,,,0.00,Rainwise IP-100,2013-04-26 01:50:00,
2013-04-25 19:55:00,60.5,33.0,25.59,SSE,157,8.9,14.2,36,0.00,,,0.00,Rainwise IP-100,2013-04-26 01:55:00,
2013-04-25 20:00:00,60.8,33.0,25.59,South,180,15.2,19.1,36,0.00,,,0.00,Rainwise IP-100,2013-04-26 02:00:00,
2013-04-25 20:05:00,61.3,33.0,25.60,South,180,10.5,18.2,35,0.00,,,0.00,Rainwise IP-100,2013-04-26 02:05:00,
2013-04-25 20:10:00,61.6,32.0,25.60,SSE,157,8.6,15.2,33,0.00,,,0.00,Rainwise IP-100,2013-04-26 02:10:00,
2013-04-25 20:15:00,61.4,32.0,25.61,SSE,157,8.9,14.5,33,0.00,,,0.00,Rainwise IP-100,2013-04-26 02:15:00,
2013-04-25 20:20:00,61.0,32.0,25.62,South,180,9.6,12.6,33,0.00,,,0.00,Rainwise IP-100,2013-04-26 02:20:00,
2013-04-25 20:25:00,60.9,32.0,25.63,South,180,3.0,12.4,33,0.00,,,0.00,Rainwise IP-100,2013-04-26 02:25:00,
2013-04-25 20:30:00,61.0,32.0,25.64,South,180,2.3,6.3,33,0.00,,,0.00,Rainwise IP-100,2013-04-26 02:30:00,
2013-04-25 20:35:00,61.1,32.0,25.65,SSW,202,5.8,10.3,33,0.00,,,0.00,Rainwise IP-100,2013-04-26 02:35:00,
2013-04-25 20:40:00,61.1,32.0,25.66,WSW,247,4.4,13.8,33,0.00,,,0.00,Rainwise IP-100,2013-04-26 02:40:00,
2013-04-25 20:45:00,61.1,32.0,25.66,WSW,247,14.0,16.3,33,0.00,,,0.00,Rainwise IP-100,2013-04-26 02:45:00,
2013-04-25 20:50:00,61.8,33.0,25.66,SSW,202,6.3,21.0,34,0.00,,,0.00,Rainwise IP-100,2013-04-26 02:50:00,
2013-04-25 20:55:00,62.6,35.0,25.66,WSW,247,5.8,12.1,35,0.00,,,0.00,Rainwise IP-100,2013-04-26 02:55:00,
2013-04-25 21:00:00,62.8,35.0,25.66,South,180,9.8,13.8,34,0.00,,,0.00,Rainwise IP-100,2013-04-26 03:00:00,
2013-04-25 21:05:00,62.6,33.0,25.66,SSE,157,1.6,9.8,34,0.00,,,0.00,Rainwise IP-100,2013-04-26 03:05:00,
2013-04-25 21:10:00,62.1,32.0,25.66,SSE,157,2.3,5.4,33,0.00,,,0.00,Rainwise IP-100,2013-04-26 03:10:00,
2013-04-25 21:15:00,61.7,32.0,25.66,SSE,157,2.1,5.1,33,0.00,,,0.00,Rainwise IP-100,2013-04-26 03:15:00,
2013-04-25 21:20:00,61.2,32.0,25.66,ESE,112,2.1,4.7,34,0.00,,,0.00,Rainwise IP-100,2013-04-26 03:20:00,
2013-04-25 21:25:00,60.3,33.0,25.66,ENE,67,8.2,8.2,35,0.00,,,0.00,Rainwise IP-100,2013-04-26 03:25:00,
2013-04-25 21:30:00,59.1,33.0,25.66,NE,45,5.6,9.3,37,0.00,,,0.00,Rainwise IP-100,2013-04-26 03:30:00,
2013-04-25 21:35:00,58.6,35.0,25.66,ENE,67,2.8,10.7,40,0.00,,,0.00,Rainwise IP-100,2013-04-26 03:35:00,
2013-04-25 21:40:00,58.1,36.0,25.66,ENE,67,3.7,9.3,43,0.00,,,0.00,Rainwise IP-100,2013-04-26 03:40:00,
2013-04-25 21:45:00,57.2,37.0,25.66,ENE,67,7.7,10.5,46,0.00,,,0.00,Rainwise IP-100,2013-04-26 03:45:00,
2013-04-25 21:50:00,56.5,37.0,25.65,ENE,67,9.1,12.1,48,0.00,,,0.00,Rainwise IP-100,2013-04-26 03:50:00,
2013-04-25 21:55:00,56.1,37.0,25.66,ENE,67,11.4,15.2,49,0.00,,,0.00,Rainwise IP-100,2013-04-26 03:55:00,
2013-04-25 22:00:00,55.7,38.0,25.66,ENE,67,10.0,13.8,51,0.00,,,0.00,Rainwise IP-100,2013-04-26 04:00:00,
2013-04-25 22:01:00,55.7,38.0,25.65,ENE,67,12.1,13.8,51,0.00,,,0.00,Rainwise IP-100,2013-04-26 04:01:00,
2013-04-25 22:02:00,55.5,38.0,25.66,ENE,67,7.7,13.8,52,0.00,,,0.00,Rainwise IP-100,2013-04-26 04:02:00,
2013-04-25 22:04:00,55.3,38.0,25.65,ENE,67,9.8,12.4,53,0.00,,,0.00,Rainwise IP-100,2013-04-26 04:04:00,
2013-04-25 22:09:00,55.1,39.0,25.65,East,90,5.1,11.7,54,0.00,,,0.00,Rainwise IP-100,2013-04-26 04:09:00,
2013-04-25 22:14:00,55.3,38.0,25.65,ENE,67,5.6,12.8,53,0.00,,,0.00,Rainwise IP-100,2013-04-26 04:14:00,
2013-04-25 22:19:00,55.7,38.0,25.65,ESE,112,4.2,7.2,51,0.00,,,0.00,Rainwise IP-100,2013-04-26 04:19:00,
2013-04-25 22:24:00,56.1,37.0,25.65,SE,135,5.8,10.7,48,0.00,,,0.00,Rainwise IP-100,2013-04-26 04:24:00,
2013-04-25 22:29:00,56.5,36.0,25.65,East,90,7.9,15.6,45,0.00,,,0.00,Rainwise IP-100,2013-04-26 04:29:00,
2013-04-25 22:34:00,56.7,35.0,25.63,SE,135,13.5,16.8,44,0.00,,,0.00,Rainwise IP-100,2013-04-26 04:34:00,
2013-04-25 22:39:00,56.8,35.0,25.63,ESE,112,7.9,16.3,43,0.00,,,0.00,Rainwise IP-100,2013-04-26 04:39:00,
2013-04-25 22:44:00,56.7,35.0,25.63,ESE,112,11.9,18.4,43,0.00,,,0.00,Rainwise IP-100,2013-04-26 04:44:00,
2013-04-25 22:49:00,56.6,35.0,25.64,ESE,112,8.2,17.0,43,0.00,,,0.00,Rainwise IP-100,2013-04-26 04:49:00,
2013-04-25 22:54:00,56.2,35.0,25.63,SE,135,6.8,16.1,44,0.00,,,0.00,Rainwise IP-100,2013-04-26 04:54:00,
2013-04-25 22:59:00,55.9,35.0,25.63,ESE,112,7.9,15.2,45,0.00,,,0.00,Rainwise IP-100,2013-04-26 04:59:00,
2013-04-25 23:04:00,55.9,35.0,25.63,SE,135,7.9,14.5,45,0.00,,,0.00,Rainwise IP-100,2013-04-26 05:04:00,
2013-04-25 23:09:00,55.9,36.0,25.63,SE,135,14.9,16.1,46,0.00,,,0.00,Rainwise IP-100,2013-04-26 05:09:00,
2013-04-25 23:14:00,55.9,36.0,25.63,SE,135,10.0,18.4,46,0.00,,,0.00,Rainwise IP-100,2013-04-26 05:14:00,
2013-04-25 23:19:00,55.7,36.0,25.63,SE,135,13.5,15.4,46,0.00,,,0.00,Rainwise IP-100,2013-04-26 05:19:00,
2013-04-25 23:24:00,55.4,36.0,25.63,SE,135,6.1,16.6,47,0.00,,,0.00,Rainwise IP-100,2013-04-26 05:24:00,
2013-04-25 23:29:00,55.4,36.0,25.63,ESE,112,7.2,13.8,47,0.00,,,0.00,Rainwise IP-100,2013-04-26 05:29:00,
2013-04-25 23:34:00,55.6,36.0,25.63,South,180,5.4,14.2,46,0.00,,,0.00,Rainwise IP-100,2013-04-26 05:34:00,
2013-04-25 23:39:00,55.8,36.0,25.63,ESE,112,5.1,14.2,46,0.00,,,0.00,Rainwise IP-100,2013-04-26 05:39:00,
2013-04-25 23:44:00,55.8,36.0,25.64,SSE,157,4.7,10.0,46,0.00,,,0.00,Rainwise IP-100,2013-04-26 05:44:00,
2013-04-25 23:49:00,55.9,35.0,25.64,SSE,157,5.4,9.3,45,0.00,,,0.00,Rainwise IP-100,2013-04-26 05:49:00,
2013-04-25 23:54:00,56.0,35.0,25.64,SSE,157,6.3,8.9,45,0.00,,,0.00,Rainwise IP-100,2013-04-26 05:54:00,
2013-04-25 23:59:00,56.2,35.0,25.63,SSE,157,11.2,11.2,45,0.00,,,0.00,Rainwise IP-100,2013-04-26 05:59:00,